www.pogodaiklimat.ru

Погода и климат >> Архив погоды >> Бенин >> Параку


ПОГОДА в Параку

  • Прогноз погоды в Параку
  • Монитор погоды в Параку

АРХИВ ПОГОДЫ в Параку

Время (UTC), дата Ветер
(напр.,м/с)
 
Видим.   Явления Облачность Т
(С)
Тd
(С)
f
(%)
Тe
(С)
Тes
(С)
Комфортность P
(гПа)
Po
(гПа)
Тmin
(С)
Tmax
(С)
R
(мм)
R24
(мм)
S
(см)
03 10.09 С 1 10 км в посл. час дождь 9/3 240 м
[Sc Ac trans Ci sp]
+23.5 +22.8 96 +31 +31 очень
душно
1012.0 968.1
06 10.09 В 1 6000 м слаб. ливневой дождь, в посл. час гроза 9/8 240 м
[Sc Ac trans Ci sp]
+20.9 +19.7 93 +27 +27 душно 1015.5 970.9 +22.0 13
09 10.09 ЮЗ 2 20 км {дождь} 10/10 240 м
[Sc]
+22.5 +20.2 87 +29 +29 очень
душно
1014.8 970.2
12 10.09 СЗ 2 20 км {дождь} 9/1 600 м
[Cu hum Ac trans Ci sp]
+28.0 +21.6 68 +36 +47 очень
душно
1012.6 968.5 0.1
15 10.09 С 1 20 км 9/6 300 м
[Cu Sc Ac trans Ci sp]
+28.3 +23.0 73 +38 +41 очень
душно
1010.7 966.7
18 10.09 СЗ 3 20 км 9/4 300 м
[Cu Sc Ac trans Ci sp]
+27.0 +23.4 81 +37 +37 очень
душно
1011.2 966.9 +29.4 0.5
21 10.09 З 1 10 км 9/0
[Ac As]
+25.0 +23.6 92 +34 +34 очень
душно
1012.6 968.2
00 11.09 ЮЗ 1 10 км 9/0
[Ac trans Ci sp]
+24.5 +23.1 92 +33 +33 очень
душно
1011.5 967.6
03 11.09 СЗ 1 10 км 9/0
[Ac As]
+24.0 +23.1 95 +32 +32 очень
душно
1011.0 967.0
06 11.09 З 1 10 км 9/0
[Ac trans Ci sp]
+23.5 +22.8 96 +31 +31 очень
душно
1011.8 967.7 +23.0 0.1
09 11.09 З 2 10 км 9/4 300 м
[Cu Sc Ac trans Ci sp]
+26.7 +23.4 82 +36 +40 очень
душно
1013.1 969.0
12 11.09 ЮЗ 3 20 км 9/9 300 м
[Cu Sc Ci sp]
+28.4 +23.6 75 +39 +41 очень
душно
1011.8 967.9
15 11.09 Ю 5 20 км 9/9 300 м
[Cu Sc Ci sp]
+27.6 +23.6 79 +38 +38 очень
душно
1009.0 965.1
18 11.09 ЮЗ 3 15 км 9/3 300 м
[Cb cap Ac trans Ci sp]
+26.0 +22.1 79 +34 +34 очень
душно
1010.9 966.8 +29.0
21 11.09 З 2 10 км зарница 9/9 300 м
[Cb cap Ci sp]
+24.5 +21.6 84 +31 +31 очень
душно
1012.8 968.7
00 12.09 СЗ 2 10 км 9/0
[Ac trans Ci sp]
+23.0 +22.1 95 +31 +31 очень
душно
1012.0 967.9
03 12.09 Ю 1 10 км 9/5 300 м
[Sc Ac As Ci sp]
+22.5 +21.8 96 +30 +30 очень
душно
1010.5 966.4
06 12.09 Ю 2 10 км 9/4 300 м
[Sc Ac trans Ci sp]
+22.5 +21.9 96 +30 +30 очень
душно
1011.9 967.7 +21.9
09 12.09 ЮВ 3 12 км {дождь} 9/9 240 м
[Cu Sc Ci sp]
+25.4 +22.0 81 +33 +34 очень
душно
1013.3 969.0
12 12.09 ЮВ 2 15 км {дождь} 9/9 300 м
[Cu Sc Ac trans Ci sp]
+28.9 +21.8 66 +37 +39 очень
душно
1012.2 968.1 0.2
15 12.09 ЮВ 3 15 км 9/9 300 м
[Cu Sc Ci sp]
+29.5 +22.3 65 +38 +39 очень
душно
1010.1 966.1
18 12.09 Ю 3 10 км 9/6 600 м
[Cb cap Ci sp]
+27.4 +22.5 75 +36 +36 очень
душно
1010.6 966.5 +30.5 0.2
21 12.09 Ю 3 10 км 8/0
[Ac trans Ci sp]
+24.7 +22.8 89 +33 +33 очень
душно
1013.1 968.9
00 13.09 Ю 3 10 км 8/0
[Ac trans Ci sp]
+23.5 +22.6 95 +31 +31 очень
душно
1012.7 968.6
03 13.09 Ю 2 10 км 10/10 240 м
[Sc]
+23.5 +22.0 91 +30 +30 очень
душно
1012.4 968.4
06 13.09 Ю 1 10 км 10/10 240 м
[Sc]
+23.0 +21.7 92 +31 +31 очень
душно
1013.9 969.6 +22.5 0.2
09 13.09 ЮЗ 4 10 км 9/6 300 м
[Cu Sc Ci sp]
+26.0 +22.2 80 +34 +37 очень
душно
1015.1 970.9
12 13.09 ЮЗ 3 10 км 9/9 300 м
[Cu Sc Ci sp]
+29.1 +21.8 65 +37 +39 очень
душно
1012.7 968.7
15 13.09 ЮЗ 1 10 км 9/9 300 м
[Cu Sc Ci sp]
+30.1 +22.5 64 +39 +41 очень
душно
1011.1 967.2
18 13.09 ЮЗ 1 10 км в посл. час гроза 9/8 240 м
[Sc Ac trans Ci sp]
+28.5 +23.4 74 +39 +39 очень
душно
1010.7 966.7 +31.2
21 13.09 СВ 3 10 км 9/3 300 м
[Sc Ac trans Ci sp]
+26.5 +23.5 84 +36 +36 очень
душно
1013.5 969.5
00 14.09 Ю 2 10 км 9/0
[Ac trans Ci sp]
+25.5 +24.1 92 +35 +35 очень
душно
1012.7 968.9
03 14.09 ЮЗ 1 10 км 9/1 300 м
[Sc Ac trans Ci sp]
+24.0 +23.1 95 +32 +32 очень
душно
1011.2 967.3
06 14.09 СВ 3 8000 м гроза, ливневой дождь 10/8 240 м
[Cb cap Ac As]
+20.5 +19.7 95 +25 +25 комфорт 1014.5 970.1 +20.1 9
09 14.09 ЮВ 2 10 км {гроза, дождь} 10/10 300 м
[Sc]
+21.0 +19.8 93 +27 +27 душно 1014.3 969.9
12 14.09 СЗ 2 10 км {гроза, дождь} 9/6 240 м
[Cu Sc Ac trans Ci sp]
+26.5 +21.5 74 +34 +39 очень
душно
1011.7 967.7 6
15 14.09 Ю 1 20 км 9/6 240 м
[Cu Sc Ac trans Ci sp]
+26.0 +21.8 78 +33 +36 очень
душно
1011.3 967.1
18 14.09 З 1 20 км {дождь} 9/0
[Ac trans Ci sp]
+24.5 +22.6 89 +32 +32 очень
душно
1011.2 966.7 +29.0 6
21 14.09 СЗ 1 10 км 9/0
[Ac trans Ci sp]
+23.7 +22.2 91 +31 +31 очень
душно
1012.0 967.5
00 15.09 ЮЗ 2 10 км 9/8 300 м
[Sc Ci sp]
+23.1 +21.5 91 +31 +31 очень
душно
1011.7 967.5
03 15.09 Ю 1 10 км 9/3 240 м
[Sc Ac As]
+23.0 +21.7 92 +31 +31 очень
душно
1010.6 966.4
06 15.09 Ю 1 10 км 10/10 240 м
[Sc]
+22.5 +21.8 96 +30 +30 очень
душно
1012.2 967.8 +22.1 6
09 15.09 Ю 1 10 км 9/5 240 м
[Sc Ac As]
+24.4 +21.9 86 +31 +34 очень
душно
1013.8 969.4
12 15.09 Ю 2 20 км 9/8 300 м
[Cu Sc Ac trans Ci sp]
+28.5 +22.1 68 +37 +40 очень
душно
1011.7 967.7
15 15.09 С 4 20 км 9/9 300 м
[Cu Sc Ci sp]
+28.2 +23.1 74 +38 +39 очень
душно
1009.9 965.9
18 15.09 ЮЗ 2 20 км 9/4 300 м
[Cu Sc Ac trans Ci sp]
+27.4 +24.0 82 +38 +38 очень
душно
1010.1 966.0 +29.2
21 15.09 ЮВ 1 10 км 6/0
[Ci sp]
+25.2 +23.5 90 +34 +34 очень
душно
1012.0 967.8
00 16.09 Ю 2 10 км 6/0
[Ci sp]
+24.4 +23.1 92 +32 +32 очень
душно
1011.3 967.4
03 16.09 Ю 2 10 км 10/10 240 м
[Sc]
+23.2 +22.3 95 +32 +32 очень
душно
1010.6 966.6
06 16.09 Ю 2 3000 м дымка 10/10 240 м
[Sc]
+23.5 +22.8 96 +31 +31 очень
душно
1012.3 968.2 +22.5
09 16.09 Ю 3 8000 м 10/10 240 м
[Sc]
+24.0 +22.5 91 +31 +31 очень
душно
1013.4 969.1
12 16.09 ЮЗ 3 15 км 9/9 300 м
[Cu Sc Ci sp]
+27.8 +23.1 76 +37 +39 очень
душно
1012.2 968.1
15 16.09 З 1 15 км 9/8 300 м
[Cu Sc Ci sp]
+30.0 +22.2 63 +39 +41 очень
душно
1009.3 965.4
18 16.09 Ю 1 15 км 9/4 600 м
[Cb cap Cc]
+27.8 +22.6 73 +37 +37 очень
душно
1009.8 965.8 +30.7
21 16.09 ЮЗ 2 10 км зарница 9/1 900 м
[Cb cap Ac trans Ci sp]
+25.5 +23.2 87 +34 +34 очень
душно
1011.9 967.7
00 17.09 СЗ 2 10 км гроза без осадков 9/1 300 м
[Cb cap Ac trans Ci sp]
+23.5 +21.7 90 +30 +30 очень
душно
1011.5 967.4

 

Местоположение метеостанции Параку (Бенин): широта 9.35 долгота 2.62 высота над уровнем моря 393 м.

В архиве по умолчанию представлена погода в Параку за последнюю неделю. Архивные данные за месяц целиком и за предыдущие месяцы, начиная с января 2011 года, Вы можете получить, выбрав интересующий диапазон дат из раскрывающегося списка и нажав кнопку "Ввод!".


*Определитесь, кто Вы:
робот инопланетянин человек

Внимание! Время в таблицах - всемирное. Для получения местного времени необходимо прибавить поправку, которая равна 1 ч.

Смотрите также архив погоды в соседних городах и на ближайших метеорологических станциях:

Погода в Саве (Бенин) (148 км)
Погода в Каре (Того) (161 км)
Погода в Сокоде (Того) (167 км)
Погода в Ньамтугу (Того) (173 км)
Погода в Натитингу (Бенин) (174 км)
Погода в Канди (Бенин) (201 км)
Погода в Илорине (Нигерия) (236 км)
Погода в Боиконе (Бенин) (250 км)
Погода в Ибадане (Нигерия) (256 км)
Погода в Атакпаме (Того) (257 км)

Пояснения к столбцам:

Ветер - указаны скорость ветра в м/с - средняя за 10 мин, порывы в срок и между сроками (в фигурных скобках) и направление, откуда дует ветер: С - северный, СВ - северо-восточный, В - восточный, ЮВ - юго-восточный, Ю - южный, ЮЗ - юго-западный, З - западный, СЗ - северо-западный.
Видимость - горизонтальная дальность видимости в метрах или километрах. При видимости от 1 до 10 км при отсутствии осадков обычно наблюдается дымка, при ухудшении видимости до 1 км и менее - туман. В сухую погоду видимость может ухудшаться дымом, пылью или мглою.
Явления - указаны атмосферные явления, наблюдавшиеся в срок или в последний час перед сроком; фигурными скобками обозначены явления, наблюдавшиеся между сроками (за 1-3 часа до срока); квадратными скобками обозначены град или гололедные отложения с указанием их диаметра в мм.
Облачность - указаны через наклонную черту общая и нижняя облачность в баллах и высота нижней границы облаков в метрах; квадратными скобками обозначены формы облаков: Ci - перистые, Cs - перисто-слоистые, Cc - перисто-кучевые, Ac - высококучевые, As - высокослоистые, Sc - слоисто-кучевые, Ns - слоисто-дождевые, Cu - кучевые, Cb - кучево-дождевые. Подробнее классификацию облаков см. в Атласе облаков (PDF).
T - Температура воздуха - температура, измеренная на высоте 2 м над землей.
Td - Температура точки росы - температура, при понижении до которой содержащийся в воздухе водяной пар достигнет насыщения.
f - Относительная влажность воздуха - влажноcть воздуха, измеренная на высоте 2 м над землей.
Te - Эффективная температура - температура, которую ощущает одетый по сезону человек в тени. Характеристика душности погоды. При расчете учитывается влияние влажности воздуха и скорости ветра на теплоощущения человека.
Tes - Эффективная температура на солнце - температура, которую ощущает человек, с поправкой на солнечный нагрев. Характеристика знойности погоды. Зависит от высоты солнца над горизонтом, облачности и скорости ветра. Ночью, в пасмурную погоду, а также при ветре 12 м/с и более поправка равна нулю.
P - Атмосферное давление - приведенное к уровню моря атмосферное давление.
Po - Атмосферное давление - измеренное на уровне метеостанции атмосферное давление.
Tmin - Минимальная температура - минимум температуры воздуха на высоте 2 м над землей.
Tmax - Максимальная температура - максимум температуры воздуха на высоте 2 м над землей.
R - Количество осадков - Количество выпавших осадков за период времени, мм. При наведении курсора мыши на число - период времени, за который выпало указанное количество осадков.
R24 - Количество осадков - Количество выпавших осадков за 24 часа, мм.
S - Снежный покров - Высота снежного покрова, см. При наведении курсора мыши на число - состояние снежного покрова и степень покрытия местности в баллах.